Wetbulb
40.17 40.47 40.46 39.60 38.82 39.25 39.70 40.11 40.67 41.27 41.67 41.15 40.51 40.47 40.51 41.03 39.06 38.86 39.29 39.25 38.71 37.95 37.79 37.67 38.06 36.82 36.62 36.77 36.22 37.14 36.85 36.66
39.10 39.33 39.10 38.20 38.21 38.92 39.21 39.35 39.33 40.11 39.20 38.57 38.41 37.64 38.18 39.44 38.40 38.39 38.02 38.01 38.28 36.89 36.66 36.50 36.69 35.62 35.56 36.06 36.33 36.08 36.13 36.75
38.63 37.67 37.83 37.82 37.96 38.13 38.23 38.19 38.10 38.08 38.10 38.60 38.59 37.37 37.18 37.73 38.18 37.19 37.44 37.10 36.94 36.81 35.16 34.84 35.42 34.78 34.68 35.14 35.54 34.93 35.64 36.66
37.74 37.77 36.79 36.85 36.73 37.00 37.54 37.43 37.52 38.23 38.23 38.32 37.32 37.01 36.46 35.40 35.31 35.20 35.54 36.20 36.21 35.63 35.03 34.12 34.13 34.41 33.39 34.42 34.20 33.38 32.37 35.21
38.05 36.34 35.42 35.73 35.55 36.21 36.64 37.54 37.14 37.79 37.39 36.56 35.48 34.39 33.33 34.60 35.06 34.66 33.56 34.18 34.31 34.60 34.07 33.19 32.59 33.07 33.06 33.81 34.39 33.09 33.50 31.90
36.07 35.85 35.50 35.59 35.35 35.76 36.34 37.48 37.87 37.41 37.20 36.43 36.12 33.80 34.04 33.86 33.73 33.65 32.53 32.75 33.06 32.85 32.87 31.49 31.35 31.44 32.33 32.55 31.83 31.82 32.63 31.95
35.62 35.93 36.02 34.81 34.91 34.70 35.45 36.13 35.84 36.92 36.50 35.67 34.03 32.52 31.82 31.00 30.84 30.60 30.12 30.51 30.90 31.00 31.68 29.47 30.35 30.50 31.70 32.33 31.50 30.84 29.85 30.91
34.93 34.83 34.19 34.68 33.50 33.59 34.32 34.55 34.41 34.80 34.41 34.00 33.16 32.01 31.12 30.21 29.84 29.52 28.54 28.57 28.47 28.49 29.40 28.21 28.70 29.70 31.53 31.67 30.28 31.28 28.96 27.91
35.10 35.94 33.69 33.26 33.31 32.81 32.60 33.03 32.68 33.26 33.71 33.08 32.58 31.87 31.16 30.60 29.08 28.24 28.07 28.38 26.52 27.40 27.57 27.39 27.65 28.47 30.21 29.81 27.87 27.40 27.21 27.69
35.32 32.33 32.45 33.28 31.89 31.65 31.53 31.92 32.28 32.41 32.65 32.69 31.56 30.95 30.27 29.37 28.27 29.00 27.50 27.04 28.21 26.48 26.92 26.62 27.22 27.42 27.80 26.55 24.92 23.96 24.89 25.97
32.80 31.61 31.40 31.37 31.19 30.97 30.99 31.28 31.39 31.22 31.50 31.35 30.70 29.75 29.78 29.44 28.80 28.01 27.18 26.29 26.21 26.31 26.42 26.46 26.85 26.94 26.89 25.67 23.92 24.19 23.80 24.32
30.34 29.25 29.25 29.94 29.67 29.65 29.46 29.83 29.96 29.41 30.07 30.76 30.17 29.78 30.09 29.96 28.45 27.61 26.77 25.66 25.49 26.31 26.74 26.75 26.87 26.28 26.05 24.80 23.73 23.30 22.80 22.93
30.31 29.15 27.85 27.47 26.85 27.76 28.16 28.29 28.84 29.48 30.49 31.44 30.62 30.49 29.96 28.47 27.46 27.21 25.66 24.07 25.89 26.31 26.63 26.49 26.68 26.81 25.19 24.34 23.54 23.14 22.19 22.06
28.01 27.94 27.69 27.14 25.88 25.83 26.85 28.15 29.25 30.31 31.72 30.55 30.87 29.56 29.09 27.79 26.76 26.79 25.50 24.13 24.75 25.23 26.02 25.65 25.78 26.73 25.84 24.16 23.30 22.88 22.67 22.74
28.10 27.51 26.20 25.84 26.99 26.06 27.29 28.81 31.49 31.56 30.92 29.47 29.18 29.33 27.96 27.14 26.17 26.50 25.05 24.62 24.12 23.99 24.77 25.13 25.99 24.55 25.17 24.12 23.15 22.46 22.43 22.63
28.65 28.44 26.97 25.85 25.91 28.00 28.99 30.62 30.64 31.21 29.61 28.61 28.40 28.54 28.47 28.06 26.79 26.79 25.77 25.13 24.61 24.71 23.80 23.58 23.08 25.22 24.76 22.34 22.85 22.18 21.79 21.65
29.55 29.14 27.43 27.29 28.15 29.61 30.15 30.23 30.67 31.49 30.61 29.05 28.55 28.65 29.05 28.37 27.31 27.00 26.26 24.40 23.64 22.44 21.25 18.58 14.01 20.58 26.81 25.28 21.55 18.99 20.44 19.65
29.47 28.59 28.41 28.54 29.94 30.94 29.84 30.52 31.75 31.24 30.02 29.85 29.54 28.96 28.29 28.64 27.92 26.24 25.41 22.79 22.58 22.17 19.63 19.67 15.73 12.11 25.83 25.18 23.46 16.27 14.99 12.58
30.78 29.55 29.58 30.30 31.21 31.62 31.53 31.67 31.46 30.74 29.92 29.04 29.48 28.45 27.24 27.94 27.16 25.19 23.79 23.42 22.44 21.48 21.72 22.15 22.37 24.51 25.46 24.46 23.42 12.83 10.55 11.58
MSLP
1019.60 1020.10 1020.59 1020.86 1021.03 1021.06 1021.18 1021.37 1021.52 1021.68 1021.81 1022.09 1022.51 1022.84 1022.92 1022.99 1023.31 1023.44 1023.36 1023.42 1023.37 1023.18 1022.82 1022.46 1021.92 1021.50 1021.35 1020.95 1020.68 1020.14 1019.91 1018.98
1019.84 1020.31 1020.74 1021.11 1021.25 1021.25 1021.44 1021.67 1021.90 1021.86 1022.23 1022.52 1022.84 1023.19 1023.31 1023.48 1023.73 1023.98 1023.97 1023.82 1023.56 1023.51 1023.43 1022.99 1022.42 1022.13 1021.87 1021.53 1021.04 1020.59 1019.87 1019.21
1019.92 1020.38 1020.69 1021.06 1021.44 1021.65 1021.68 1021.83 1022.07 1022.05 1022.16 1022.51 1022.99 1023.30 1023.63 1023.72 1024.08 1024.29 1024.42 1024.16 1023.98 1023.62 1023.81 1023.54 1023.08 1022.71 1022.38 1022.05 1021.57 1021.03 1020.79 1020.27
1019.52 1020.29 1020.82 1021.21 1021.63 1021.71 1021.82 1022.06 1022.23 1022.21 1022.37 1022.69 1023.23 1023.46 1023.98 1024.17 1024.42 1024.64 1024.86 1024.73 1024.51 1024.13 1024.05 1023.99 1023.62 1023.20 1022.89 1022.64 1022.58 1022.04 1021.79 1021.45
1019.13 1020.18 1020.92 1021.36 1021.60 1021.75 1021.97 1022.33 1022.57 1022.61 1022.73 1023.26 1023.45 1023.55 1024.26 1024.87 1024.88 1024.96 1025.13 1025.02 1024.98 1024.63 1024.65 1024.63 1023.98 1023.72 1023.41 1023.26 1022.98 1022.84 1022.69 1022.41
1019.34 1020.26 1020.85 1021.20 1021.59 1021.93 1022.22 1022.37 1022.74 1022.84 1023.15 1023.21 1023.55 1024.11 1024.67 1025.20 1025.31 1025.66 1025.96 1025.49 1025.25 1024.83 1024.86 1025.34 1024.61 1024.21 1024.05 1023.83 1023.55 1023.55 1023.49 1023.43
1019.59 1020.37 1020.79 1021.38 1021.73 1022.09 1022.63 1022.91 1023.33 1023.24 1023.41 1023.79 1023.89 1024.29 1024.83 1025.29 1025.77 1025.91 1025.74 1025.62 1025.82 1025.55 1025.39 1025.41 1025.01 1024.94 1024.63 1024.20 1024.17 1024.08 1024.15 1024.15
1019.62 1020.32 1020.88 1021.51 1022.11 1022.56 1023.01 1023.21 1023.67 1023.69 1023.76 1024.10 1024.40 1024.74 1025.10 1025.31 1025.83 1026.23 1026.49 1026.19 1026.05 1026.11 1025.68 1025.76 1025.44 1025.32 1024.99 1024.69 1024.54 1024.68 1024.75 1024.76
1019.36 1020.00 1020.89 1021.69 1022.36 1022.83 1023.26 1023.60 1024.07 1024.22 1024.21 1024.52 1024.80 1025.14 1025.49 1025.75 1026.06 1026.15 1026.41 1026.42 1026.53 1026.38 1026.15 1026.07 1025.82 1025.57 1025.46 1025.34 1025.34 1025.35 1025.43 1025.16
1019.72 1020.45 1021.08 1021.83 1022.44 1022.86 1023.32 1023.79 1024.19 1024.41 1024.48 1024.90 1025.38 1025.65 1025.89 1026.08 1026.38 1026.51 1026.52 1026.51 1026.41 1026.64 1026.53 1026.26 1026.19 1025.98 1026.13 1026.05 1026.08 1025.98 1025.90 1025.72
1019.94 1020.63 1021.26 1021.96 1022.46 1023.05 1023.72 1024.14 1024.42 1024.63 1024.93 1025.24 1025.42 1025.90 1026.28 1026.33 1026.56 1026.72 1026.84 1026.93 1026.91 1026.86 1026.82 1026.74 1026.60 1026.57 1026.66 1026.54 1026.47 1026.45 1026.31 1026.21
1020.15 1021.10 1021.81 1022.34 1022.83 1023.44 1024.09 1024.50 1024.71 1024.94 1025.00 1025.49 1025.77 1026.15 1026.51 1026.54 1026.72 1027.09 1027.16 1027.22 1027.25 1027.20 1027.18 1027.17 1027.12 1027.18 1027.05 1026.90 1026.78 1026.79 1026.67 1026.65
1020.11 1021.20 1021.88 1022.61 1023.16 1023.78 1024.25 1024.67 1024.74 1024.96 1025.08 1025.32 1025.80 1026.35 1026.59 1026.83 1027.06 1027.37 1027.45 1027.66 1027.58 1027.50 1027.51 1027.47 1027.49 1027.42 1027.43 1027.40 1027.39 1027.41 1027.27 1027.04
1019.99 1021.22 1021.94 1022.55 1023.23 1023.74 1024.21 1024.41 1024.66 1025.04 1025.31 1025.29 1025.81 1026.30 1026.66 1027.03 1027.24 1027.55 1027.72 1027.99 1027.91 1027.88 1027.85 1027.86 1027.74 1027.68 1027.71 1027.74 1027.83 1027.81 1027.70 1027.61
1019.20 1020.52 1021.39 1022.24 1022.86 1023.47 1023.75 1024.05 1024.35 1024.40 1025.05 1025.35 1025.78 1026.31 1026.62 1027.01 1027.32 1027.73 1028.03 1028.20 1028.26 1028.42 1028.43 1028.21 1028.02 1027.99 1027.91 1028.03 1028.19 1028.31 1028.23 1028.06
1018.07 1019.47 1020.77 1021.73 1022.49 1023.00 1023.30 1023.74 1024.08 1024.14 1024.78 1025.32 1025.83 1026.23 1026.50 1026.89 1027.24 1027.84 1028.21 1028.39 1028.56 1028.68 1028.61 1028.53 1028.46 1028.16 1028.30 1028.66 1028.66 1028.78 1028.76 1028.49
1017.62 1018.94 1019.99 1020.79 1021.52 1022.13 1022.73 1023.24 1023.50 1023.93 1024.50 1025.14 1025.61 1026.01 1026.50 1026.71 1027.20 1027.79 1028.22 1028.66 1028.89 1029.09 1029.08 1029.05 1028.99 1028.84 1028.27 1028.59 1029.07 1029.27 1029.35 1029.19
1016.73 1017.85 1018.69 1019.56 1020.40 1021.17 1022.00 1022.45 1023.08 1023.64 1024.25 1024.82 1025.20 1025.68 1026.20 1026.50 1027.02 1027.59 1028.19 1028.73 1028.98 1029.29 1029.37 1029.38 1029.25 1029.34 1028.56 1028.75 1029.05 1029.71 1029.81 1029.64
1015.96 1016.83 1017.73 1018.71 1019.73 1020.64 1021.44 1021.95 1022.56 1023.35 1024.03 1024.40 1024.75 1025.29 1025.84 1026.28 1026.80 1027.38 1028.04 1028.57 1028.96 1029.37 1029.51 1029.63 1029.41 1028.92 1028.85 1028.95 1029.12 1030.00 1030.08 1029.99
Wind_Speed
8 8 7 7 6 6 6 5 7 7 6 6 5 6 5 5 5 6 7 6 8 5 5 7 5 5 6 7 7 6 6 9
7 7 7 7 5 7 5 7 4 5 3 4 4 4 3 4 6 6 7 6 5 7 5 7 6 7 7 8 6 9 8 11
9 8 6 4 7 6 6 6 5 3 3 3 3 3 4 4 4 6 6 6 7 7 7 7 8 6 9 9 10 7 6 9
14 11 7 7 7 7 6 5 5 5 6 6 4 4 3 3 4 4 6 8 8 7 7 6 7 6 6 8 9 10 6 7
13 10 8 7 6 6 7 6 6 6 5 4 3 3 4 2 3 3 5 7 7 8 8 7 6 5 7 7 7 6 6 8
11 12 9 6 6 6 6 6 6 6 6 7 7 7 5 3 3 5 5 6 7 7 7 7 7 5 6 7 7 8 6 6
11 8 8 6 6 7 6 7 5 5 7 6 8 8 6 5 4 3 3 3 4 6 6 6 6 6 5 5 6 8 7 7
13 13 10 8 8 7 6 7 6 6 7 7 7 7 7 7 5 3 3 3 3 5 6 6 5 6 6 7 7 7 6 5
14 14 8 10 9 7 7 7 6 6 7 7 6 6 4 4 4 4 3 3 3 5 5 5 7 7 7 7 6 6 6 5
13 7 10 11 8 8 8 8 7 6 7 6 6 5 6 5 5 4 3 4 4 5 6 7 7 8 8 7 6 7 6 6
7 7 9 6 7 7 7 6 7 6 6 6 6 6 5 5 5 5 5 5 5 5 6 6 7 7 6 5 7 8 8 6
7 6 6 7 7 7 7 6 7 6 6 6 6 5 5 5 6 5 5 5 5 5 6 6 6 6 6 7 7 9 10 9
9 9 9 8 7 7 7 6 6 6 6 7 7 6 6 6 6 5 5 5 5 5 5 6 5 6 7 7 8 8 9 9
10 10 10 10 8 7 7 7 6 6 5 7 7 6 6 6 6 6 6 5 5 5 5 5 4 5 5 6 7 8 8 8
13 12 11 10 9 9 8 7 8 8 6 6 7 7 7 6 6 6 5 5 5 4 3 4 4 5 7 7 7 7 7 8
17 16 13 11 10 9 9 8 8 8 7 7 6 6 7 7 8 7 5 5 4 3 4 5 5 4 5 5 6 6 7 8
13 15 16 15 13 12 10 10 10 9 7 8 7 7 7 8 8 7 7 4 4 5 5 4 5 2 9 9 7 5 7 7
15 17 17 15 15 13 12 12 10 9 8 7 8 7 7 8 8 8 7 5 5 4 3 3 3 3 8 8 10 4 5 4
15 14 15 14 13 13 12 11 12 10 8 7 7 7 7 8 8 7 6 5 5 4 3 3 4 4 8 6 8 3 4 4
Wind_Direction
143 134 132 130 117 107 108 100 102 104 107 99 79 70 58 55 51 42 33 29 19 8 13 8 11 21 17 12 3 353 350 337
134 134 136 117 114 116 113 112 123 121 111 107 87 91 71 65 59 38 33 25 23 21 9 11 12 20 15 11 357 1 8 352
158 150 148 149 141 129 119 109 118 130 124 114 123 128 89 96 82 51 33 31 25 38 22 13 14 13 16 15 14 9 10 10
169 161 148 140 154 145 125 111 99 96 100 105 92 84 61 50 49 60 33 29 26 33 26 18 12 16 19 21 10 21 10 15
157 143 147 170 151 124 113 105 97 94 103 90 90 99 107 63 79 77 54 36 23 28 20 12 23 16 25 19 21 21 7 25
146 146 163 163 137 130 126 110 98 98 102 108 112 99 93 100 73 65 33 24 24 23 34 6 15 20 15 24 28 28 25 36
130 146 153 141 124 119 111 111 96 100 99 101 111 116 115 91 72 74 57 39 16 26 27 16 20 9 8 23 21 43 29 36
149 161 170 148 129 121 124 122 111 105 106 100 99 102 104 109 102 89 52 26 31 15 28 20 19 7 6 35 28 40 32 39
166 178 149 138 140 140 124 121 114 106 106 107 102 103 100 94 97 99 83 69 39 26 28 27 22 20 17 39 35 28 31 29
175 133 144 152 147 141 136 131 123 120 119 115 103 99 101 106 93 85 74 48 71 42 34 36 29 33 30 37 37 31 31 28
173 153 148 142 134 126 123 126 127 125 114 114 114 113 112 112 103 90 74 64 58 48 39 35 36 37 31 39 38 30 37 30
151 138 134 130 116 126 132 128 130 126 123 122 121 117 122 110 96 88 74 67 59 55 45 43 42 41 35 40 48 35 37 32
151 150 143 145 143 142 144 148 139 149 144 138 130 130 118 107 106 96 75 70 63 61 49 50 43 51 45 43 43 37 38 30
152 158 165 161 153 150 158 156 157 155 150 137 136 132 130 120 114 107 83 78 64 57 50 51 45 62 65 57 44 36 36 29
170 171 171 163 165 167 165 163 167 153 153 146 143 147 140 131 121 115 103 82 76 61 45 50 54 65 65 62 53 41 33 28
185 178 170 167 170 172 167 165 171 151 147 146 155 152 141 138 123 124 116 94 82 67 60 43 36 79 79 61 58 47 34 27
185 176 170 175 177 174 169 171 163 157 153 161 157 147 155 146 137 134 126 113 96 74 54 53 38 7 83 80 76 57 41 30
179 180 178 177 179 171 172 163 154 161 164 165 164 159 162 157 147 139 142 152 121 99 58 45 29 357 76 82 76 60 42 14
180 177 176 174 167 165 159 160 163 167 172 169 164 163 160 152 151 153 150 157 141 138 99 59 39 53 66 74 76 62 31 3